FENGYUN 1C DEB

Satellite information

Favourite Embed

Satellite Type and Status

DEBRISIN ORBIT

Key statistics

Satellite FENGYUN 1C DEB at a glance.

Uptime

9715

Days in orbit

Revolutions

≈ 15.0

Per day

Orbit

SSO

Sun Synchronous Orbit

Inclination

99.1

Latest

Satellite identification and parameters

Extended collection of information and parameters for FENGYUN 1C DEB.

Object identification

Identified? True

Debris? True

Object name: FENGYUN 1C DEB

International designator: 1999-025ETT

Object number (NORAD): 38726

Object ID (CCSDS): 38726

Country: PEOPLES REPUBLIC OF CHINA (PRC)

Current information (Y/N): Y

RCS size: SMALL

Orbital parameters

Period: 95.82 minutes

Inclination: 99.1369 deg

SMA: 6936.37 km

Apoapsis: 574.571 km

Periapsis: 541.899 km

RAAN: 9.1467 deg

Eccentricy: 0.00235515

Argument of periapsis: 129.1627 deg

Mean anomaly: 231.1691 deg

Mean motion: 15.02811105 rev/day

Mean motion (dot): 0.00183926 rev/day2

B* drag term: 0.013324693 1/REarth

Two-line elements (TLE)

Creation date: Dec. 11, 2025, 7:14 p.m.

Reference frame: TEME

Reference center: EARTH

Epoch: Dec. 11, 2025, 8:02 a.m. UTC

TLE line 0: 0 FENGYUN 1C DEB

TLE line 1: 1 38726U 99025ETT 25345.33488211 .00183926 00000-0 13325-1 0 9994

TLE line 2: 2 38726 99.1369 9.1467 0023551 129.1627 231.1691 15.02811105698343

Live tracking on map

Real-time ground track for satellite FENGYUN 1C DEB.

In-orbit conjunctions

A list of the most updated potential collisions computed for object FENGYUN 1C DEB.

Target Orbit TCA Probability of collision Miss distance Type
CZ-6A DEB LEO 2024-10-17 14:17:12 0.0001357044 146.0 (m) DEBRIS
CZ-6A DEB LEO 2024-09-24 14:15:13 0.0001810979 431.0 (m) DEBRIS

Associated space launch

Chinese polar orbiting meteorological satellite

FENGYUN 1C DEB was lifted into orbit during the mission ‘Long March 4B | Feng Yun 1C’, on board a Long March 4B space rocket.

The launch took place on May 10, 1999, 1:33 a.m. from Launch Complex 7.

For more information about the launch, click the button.

Launch to space Long March 4B | Feng Yun 1C
Long March 4B | Feng Yun 1C

Agency: N/A

Status: Launch Successful

Launch date: May 10, 1999, 1:33 a.m. UTC

Rocket: Long March 4B

Launch pad: Launch Complex 7

Location: Taiyuan Satellite Launch Center, People's Republic of China

...

Latest news about this satellite

There are no fresh news available about this satellite. Check back as we update our databases every day.


Newsletter sign-up

Weekly statistics, charts and insights to help you stay on top of the space industry.